period_start,C,m1,H,J0,J1,J2,J3,J4,J5,JA,JB,JC,JD,JJ,JK,JN,#
2015-05-15 00:00:05,0.05,1.44,0.00,23.56,27.20,29.91,4.73,27.74,1017.27,2033.98,2770.97,2975.72,3135.12,349.93,347.13,31.84,0000 0000 0000 0000 000000
2015-05-15 00:05:06,0.06,1.44,0.00,23.58,27.20,29.89,4.74,27.83,1017.21,2033.99,2770.16,2975.04,3134.99,350.13,347.24,31.86,0000 0000 0000 0000 000000
2015-05-15 00:10:08,0.07,1.44,0.00,23.62,27.22,29.89,4.74,27.75,1017.15,2033.97,2769.55,2974.67,3134.51,350.08,347.13,31.89,0000 0000 0000 0000 000000
2015-05-15 00:15:09,0.04,1.44,0.00,23.62,27.22,29.87,4.80,27.76,1017.14,2033.96,2768.93,2974.04,3134.01,350.08,347.37,31.92,0000 0000 0000 0000 000000
2015-05-15 00:20:10,0.08,1.44,0.00,23.65,27.22,29.90,4.66,27.75,1017.13,2033.96,2768.08,2973.67,3133.48,349.38,346.80,31.95,0000 0000 0000 0000 000000
2015-05-15 00:25:11,0.06,1.45,0.00,23.70,27.24,29.87,4.83,27.73,1017.12,2033.98,2767.26,2973.03,3132.99,350.04,346.97,31.98,0000 0000 0000 0000 000000
2015-05-15 00:30:13,0.10,1.45,0.00,23.72,27.25,29.89,4.76,27.85,1017.13,2033.99,2766.32,2972.48,3132.26,350.20,347.21,32.01,0000 0000 0000 0000 000000
2015-05-15 00:35:14,0.07,1.45,0.00,23.70,27.25,29.97,4.77,27.85,1017.12,2033.97,2765.35,2971.86,3131.61,349.81,346.80,32.04,0000 0000 0000 0000 000000
2015-05-15 00:40:15,0.08,1.45,0.00,23.60,27.26,30.04,4.76,27.98,1017.11,2033.95,2764.48,2971.09,3130.91,350.08,347.21,32.07,0000 0000 0000 0000 000000
2015-05-15 00:45:17,0.13,1.46,0.00,23.63,27.27,29.91,4.73,27.88,1017.12,2033.96,2762.83,2970.08,3129.75,349.63,346.76,32.10,0000 0000 0000 0000 000000
2015-05-15 00:50:18,0.11,1.46,0.00,23.71,27.30,29.68,4.76,28.06,1017.12,2033.95,2761.69,2969.15,3128.83,349.43,346.50,32.13,0000 0000 0000 0000 000000
2015-05-15 00:55:19,0.08,1.46,0.00,23.83,27.33,29.62,4.78,28.06,1017.12,2033.63,2760.26,2967.96,3127.54,349.90,346.87,32.16,0000 0000 0000 0000 000000
2015-05-15 01:00:21,0.16,1.47,0.00,23.96,27.37,29.70,4.76,28.07,1017.12,2033.14,2757.98,2966.16,3125.65,349.89,346.34,32.19,0000 0000 0000 0000 000000
2015-05-15 01:05:22,0.28,1.48,0.00,24.09,27.43,29.85,4.80,28.08,1017.13,2033.01,2755.09,2963.94,3123.38,350.63,347.22,32.22,0000 0000 0000 0000 000000
2015-05-15 01:10:23,0.36,1.49,0.00,24.29,27.50,30.02,4.79,28.11,1017.22,2032.99,2751.64,2961.18,3120.48,350.49,346.78,32.25,0000 0000 0000 0000 000000
2015-05-15 01:15:24,0.34,1.50,0.00,24.55,27.58,30.16,4.70,28.03,1017.40,2032.88,2748.06,2958.29,3117.48,349.67,345.87,32.27,0000 0000 0000 0000 000000
2015-05-15 01:20:26,0.25,1.50,0.00,24.63,27.67,30.27,4.78,27.93,1017.55,2032.15,2744.19,2955.19,3114.26,349.74,345.88,32.30,0000 0000 0000 0000 000000
2015-05-15 01:25:27,0.35,1.51,0.00,24.60,27.76,30.39,4.77,27.86,1017.58,2032.00,2740.37,2952.28,3111.23,349.59,345.74,32.33,0000 0000 0000 0000 000000
2015-05-15 01:30:28,0.32,1.52,0.00,24.60,27.84,30.49,4.70,27.77,1017.59,2032.00,2736.76,2949.61,3108.50,349.70,345.92,32.36,0000 0000 0000 0000 000000
2015-05-15 01:35:29,0.29,1.53,0.00,24.58,27.91,30.58,4.67,27.72,1017.59,2031.83,2733.38,2947.15,3105.95,350.28,346.23,32.39,0000 0000 0000 0000 000000
2015-05-15 01:40:31,0.30,1.54,0.00,24.54,27.97,30.67,4.73,27.80,1017.58,2031.19,2729.39,2944.26,3103.04,349.85,346.14,32.42,0000 0000 0000 0000 000000
2015-05-15 01:45:32,0.43,1.55,0.00,24.49,28.02,30.74,4.70,27.77,1017.59,2031.03,2724.66,2940.86,3099.25,349.46,345.64,32.45,0000 0000 0000 0000 000000
2015-05-15 01:50:33,0.46,1.57,0.00,24.45,28.05,30.76,4.79,27.73,1017.58,2031.00,2719.82,2937.26,3095.53,350.27,346.59,32.48,0000 0000 0000 0000 000000
2015-05-15 01:55:34,0.44,1.58,0.00,24.41,28.07,30.85,4.78,27.75,1017.56,2031.00,2715.13,2933.81,3091.94,350.43,346.68,32.51,0000 0000 0000 0000 000000
2015-05-15 02:00:36,0.44,1.59,0.00,24.39,28.10,30.96,4.78,27.77,1017.47,2030.98,2710.65,2930.49,3088.48,350.44,346.74,32.54,0000 0000 0000 0000 000000
2015-05-15 02:05:37,0.45,1.60,0.00,24.37,28.10,30.93,4.86,27.77,1017.43,2030.97,2705.85,2926.99,3084.86,350.62,346.98,32.57,0000 0000 0000 0000 000000
2015-05-15 02:10:38,0.41,1.62,0.00,24.34,28.11,30.91,4.67,27.70,1017.32,2030.96,2701.39,2923.69,3081.50,349.46,345.77,32.60,0000 0000 0000 0000 000000
2015-05-15 02:15:39,0.36,1.63,0.00,24.32,28.10,30.90,4.71,27.68,1017.16,2030.96,2697.63,2920.95,3078.61,349.66,346.30,32.63,0000 0000 0000 0000 000000
2015-05-15 02:20:41,0.34,1.64,0.00,24.32,28.10,30.82,4.78,27.84,1017.37,2030.93,2694.03,2918.32,3075.89,350.17,346.67,32.66,0000 0000 0000 0000 000000
2015-05-15 02:25:42,0.34,1.65,0.00,24.32,28.10,30.81,4.76,27.73,1017.44,2030.88,2690.34,2915.66,3073.09,349.74,346.05,32.69,0000 0000 0000 0000 000000
2015-05-15 02:30:43,0.33,1.66,0.00,24.32,28.08,30.79,4.76,27.77,1017.42,2030.89,2686.97,2913.13,3070.60,349.77,346.26,32.71,0000 0000 0000 0000 000000
2015-05-15 02:35:44,0.34,1.67,0.00,24.31,28.07,30.76,4.78,27.84,1017.42,2030.91,2683.58,2910.61,3068.05,350.18,346.62,32.74,0000 0000 0000 0000 000000
2015-05-15 02:40:46,0.32,1.68,0.00,24.32,28.05,30.73,4.74,27.84,1017.39,2030.78,2680.06,2908.02,3065.49,349.83,346.15,32.77,0000 0000 0000 0000 000000
2015-05-15 02:45:47,0.34,1.69,0.00,24.33,28.04,30.70,4.72,27.72,1017.46,2030.93,2676.64,2905.51,3062.79,349.70,346.12,32.80,0000 0000 0000 0000 000000
2015-05-15 02:50:48,0.23,1.70,0.00,24.34,28.02,30.69,4.86,27.75,1017.54,2030.97,2673.98,2903.66,3060.79,350.39,346.82,32.83,0000 0000 0000 0000 000000
2015-05-15 02:55:49,0.14,1.70,0.00,24.35,28.01,30.65,4.73,27.78,1017.40,2030.98,2672.43,2902.54,3059.65,349.74,346.18,32.86,0000 0000 0000 0000 000000
2015-05-15 03:00:51,0.22,1.71,0.00,24.37,28.00,30.61,4.68,27.73,1017.31,2030.99,2670.24,2900.96,3057.98,349.74,345.97,32.89,0000 0000 0000 0000 000000
2015-05-15 03:05:52,0.21,1.71,0.00,24.40,27.98,30.58,4.72,27.77,1017.28,2030.99,2667.80,2899.30,3056.34,349.42,345.81,32.92,0000 0000 0000 0000 000000
2015-05-15 03:10:53,0.21,1.72,0.00,24.41,27.97,30.57,4.75,27.80,1017.20,2030.99,2665.63,2897.76,3054.72,349.49,345.78,32.95,0000 0000 0000 0000 000000
2015-05-15 03:15:55,0.28,1.73,0.00,24.42,27.95,30.57,4.70,27.70,1017.21,2031.00,2663.03,2895.83,3052.72,350.02,346.33,32.98,0000 0000 0000 0000 000000
2015-05-15 03:20:56,0.22,1.73,0.00,24.43,27.95,30.53,4.72,27.76,1017.17,2031.00,2660.44,2894.05,3050.87,350.14,346.33,33.01,0000 0000 0000 0000 000000
2015-05-15 03:25:58,0.25,1.74,0.00,24.45,27.93,30.51,4.78,27.80,1017.15,2031.00,2657.83,2892.21,3048.96,350.37,346.55,33.04,0000 0000 0000 0000 000000
2015-05-15 03:30:59,0.27,1.75,0.00,24.48,27.92,30.51,4.77,27.70,1017.16,2031.03,2655.20,2890.29,3047.01,350.54,346.51,33.07,0000 0000 0000 0000 000000
2015-05-15 03:36:00,0.27,1.76,0.00,24.51,27.91,30.49,4.74,27.78,1017.24,2031.03,2652.39,2888.27,3044.90,349.98,346.15,33.10,0000 0000 0000 0000 000000
2015-05-15 03:41:02,0.29,1.77,0.00,24.52,27.90,30.47,4.81,27.90,1017.21,2031.02,2649.52,2886.18,3042.89,350.53,346.59,33.12,0000 0000 0000 0000 000000
2015-05-15 03:46:03,0.29,1.77,0.00,24.55,27.90,30.45,4.67,27.68,1017.17,2031.03,2646.51,2884.00,3040.55,349.69,345.72,33.15,0000 0000 0000 0000 000000
2015-05-15 03:51:05,0.31,1.78,0.00,24.56,27.90,30.45,4.78,27.81,1017.19,2031.22,2643.72,2882.05,3038.46,350.57,346.62,33.18,0000 0000 0000 0000 000000
2015-05-15 03:56:06,0.25,1.79,0.00,24.57,27.88,30.42,4.79,27.75,1017.19,2031.21,2640.88,2879.99,3036.27,350.52,346.38,33.21,0000 0000 0000 0000 000000
2015-05-15 04:01:07,0.29,1.80,0.00,24.60,27.87,30.40,4.74,27.79,1017.23,2031.30,2638.06,2878.12,3034.22,349.67,345.64,33.24,0000 0000 0000 0000 000000
2015-05-15 04:06:08,0.28,1.81,0.00,24.63,27.87,30.40,4.77,27.77,1017.16,2031.54,2635.43,2876.25,3032.22,349.88,345.85,33.27,0000 0000 0000 0000 000000
2015-05-15 04:11:09,0.25,1.82,0.00,24.65,27.87,30.38,4.77,27.74,1017.15,2031.67,2632.90,2874.48,3030.39,350.30,346.17,33.30,0000 0000 0000 0000 000000
2015-05-15 04:16:10,0.26,1.82,0.00,24.67,27.87,30.38,4.74,27.68,1017.13,2031.68,2630.39,2872.65,3028.46,349.88,346.02,33.33,0000 0000 0000 0000 000000
2015-05-15 04:21:11,0.26,1.83,0.00,24.69,27.87,30.37,4.72,27.80,1017.13,2031.55,2627.51,2870.60,3026.25,349.97,345.86,33.36,0000 0000 0000 0000 000000
2015-05-15 04:26:12,0.26,1.84,0.00,24.70,27.87,30.36,4.75,27.76,1017.11,2031.47,2624.66,2868.66,3024.28,350.02,345.89,33.39,0000 0000 0000 0000 000000
2015-05-15 04:31:13,0.26,1.85,0.00,24.71,27.87,30.36,4.64,27.82,1017.12,2031.57,2622.17,2866.78,3022.33,348.94,344.93,33.42,0000 0000 0000 0000 000000
2015-05-15 04:36:15,0.22,1.86,0.00,24.72,27.87,30.36,4.67,27.77,1017.12,2031.66,2619.83,2865.27,3020.62,349.66,345.55,33.45,0000 0000 0000 0000 000000
2015-05-15 04:41:16,0.20,1.86,0.00,24.75,27.87,30.35,4.80,27.85,1017.12,2031.54,2617.78,2863.75,3019.39,350.07,346.04,33.48,0000 0000 0000 0000 000000
2015-05-15 04:46:17,0.21,1.87,0.00,24.77,27.87,30.35,4.78,27.72,1017.13,2031.62,2615.32,2862.11,3017.47,350.03,345.75,33.51,0000 0000 0000 0000 000000
2015-05-15 04:51:19,0.17,1.87,0.00,24.79,27.88,30.36,4.79,27.78,1017.14,2031.34,2613.25,2860.56,3015.90,350.06,345.85,33.53,0000 0000 0000 0000 000000
2015-05-15 04:56:20,0.13,1.88,0.00,24.81,27.89,30.34,4.73,27.73,1017.13,2031.39,2611.83,2859.68,3014.91,349.79,345.72,33.56,0000 0000 0000 0000 000000
2015-05-15 05:01:21,0.13,1.88,0.00,24.82,27.90,30.35,4.73,27.73,1017.13,2031.41,2610.54,2858.70,3013.92,350.24,346.04,33.59,0000 0000 0000 0000 000000
2015-05-15 05:06:23,0.12,1.89,0.00,24.85,27.90,30.36,4.73,27.80,1017.12,2031.43,2609.36,2857.80,3012.94,349.60,345.36,33.62,0000 0000 0000 0000 000000
2015-05-15 05:11:24,0.06,1.89,0.00,24.87,27.90,30.37,4.70,27.63,1017.12,2031.18,2608.09,2856.98,3012.04,350.26,345.95,33.65,0000 0000 0000 0000 000000
2015-05-15 05:16:25,0.11,1.89,0.00,24.88,27.91,30.38,4.70,27.69,1017.12,2031.18,2607.04,2856.13,3011.16,349.96,345.70,33.68,0000 0000 0000 0000 000000
2015-05-15 05:21:26,0.12,1.89,0.00,24.90,27.92,30.37,4.68,27.76,1017.12,2031.19,2605.96,2855.40,3010.37,349.05,344.78,33.71,0000 0000 0000 0000 000000
2015-05-15 05:26:28,0.03,1.90,0.00,24.91,27.92,30.39,4.76,27.75,1017.12,2031.13,2605.04,2854.97,3009.93,350.50,346.11,33.74,0000 0000 0000 0000 000000
2015-05-15 05:31:29,0.10,1.90,0.00,24.92,27.93,30.40,4.76,27.68,1017.12,2031.07,2604.20,2854.15,3009.10,350.21,345.81,33.77,0000 0000 0000 0000 000000
2015-05-15 05:36:30,0.02,1.90,0.00,24.94,27.95,30.41,4.73,27.94,1017.12,2031.05,2603.65,2853.99,3008.92,349.36,345.07,33.80,0000 0000 0000 0000 000000
2015-05-15 05:41:31,0.08,1.90,0.00,24.96,27.95,30.42,4.73,27.82,1017.12,2031.03,2602.99,2853.38,3008.41,349.63,345.19,33.83,0000 0000 0000 0000 000000
2015-05-15 05:46:33,0.04,1.90,0.00,24.97,27.96,30.43,4.75,27.82,1017.12,2031.02,2602.25,2853.00,3007.93,350.22,345.98,33.86,0000 0000 0000 0000 000000
2015-05-15 05:51:34,0.08,1.91,0.00,24.99,27.97,30.44,4.64,27.69,1017.12,2031.02,2601.93,2852.48,3007.20,349.12,344.70,33.89,0000 0000 0000 0000 000000
2015-05-15 05:56:36,0.04,1.91,0.00,25.00,27.97,30.46,4.74,27.72,1017.13,2031.00,2601.17,2852.01,3007.00,350.05,345.65,33.92,0000 0000 0000 0000 000000
2015-05-15 06:01:37,0.05,1.91,0.00,25.00,27.99,30.46,4.73,27.80,1017.15,2031.00,2600.74,2851.82,3006.51,349.91,345.45,33.95,0000 0000 0000 0000 000000
2015-05-15 06:06:38,0.06,1.91,0.00,25.02,28.00,30.48,4.77,27.71,1017.25,2031.00,2600.03,2851.08,3006.02,350.23,345.78,33.97,0000 0000 0000 0000 000000
2015-05-15 06:11:40,0.05,1.91,0.00,25.02,28.01,30.49,4.75,27.63,1017.42,2031.00,2599.54,2850.95,3005.71,349.93,345.32,34.00,0000 0000 0000 0000 000000
2015-05-15 06:16:41,0.06,1.91,0.00,25.04,28.02,30.51,4.78,27.71,1017.46,2030.99,2598.99,2850.29,3005.04,350.21,345.89,34.03,0000 0000 0000 0000 000000
2015-05-15 06:21:42,0.04,1.92,0.00,25.04,28.02,30.51,4.68,27.73,1017.54,2030.99,2598.20,2850.00,3004.88,349.92,345.42,34.06,0000 0000 0000 0000 000000
2015-05-15 06:26:44,0.08,1.92,0.00,25.07,28.05,30.54,4.75,27.70,1017.56,2030.97,2597.80,2849.48,3004.09,349.69,345.27,34.09,0000 0000 0000 0000 000000
2015-05-15 06:31:45,0.03,1.92,0.00,25.08,28.05,30.54,4.74,27.77,1017.59,2030.98,2597.06,2849.02,3003.98,350.25,345.89,34.12,0000 0000 0000 0000 000000
2015-05-15 06:36:46,0.02,1.92,0.00,25.10,28.07,30.55,4.75,27.71,1017.59,2030.97,2596.91,2848.98,3003.50,350.35,345.98,34.15,0000 0000 0000 0000 000000
2015-05-15 06:41:47,0.08,1.92,0.00,25.10,28.07,30.56,4.65,27.75,1017.59,2030.89,2596.16,2848.26,3003.02,349.67,345.24,34.18,0000 0000 0000 0000 000000
2015-05-15 06:46:49,0.02,1.92,0.00,25.12,28.09,30.59,4.77,27.69,1017.59,2030.91,2596.00,2848.01,3002.52,349.96,345.56,34.21,0000 0000 0000 0000 000000
2015-05-15 06:51:50,0.02,1.92,0.00,25.14,28.10,30.60,4.69,27.69,1017.59,2030.88,2595.80,2847.94,3002.03,349.64,345.17,34.24,0000 0000 0000 0000 000000
2015-05-15 06:56:51,0.02,1.93,0.00,25.18,28.11,30.60,4.77,27.63,1017.58,2030.68,2595.08,2847.33,3001.85,349.92,345.41,34.27,0000 0000 0000 0000 000000
2015-05-15 07:01:52,0.01,1.93,0.00,25.20,28.12,30.61,4.71,27.64,1017.59,2030.32,2594.34,2846.98,3001.12,349.91,345.43,34.30,0000 0000 0000 0000 000000
2015-05-15 07:06:53,0.04,1.93,0.00,25.24,28.14,30.62,4.72,27.66,1017.57,2030.11,2593.75,2846.31,3000.87,349.57,344.98,34.33,0000 0000 0000 0000 000000
2015-05-15 07:11:55,0.19,1.93,0.00,25.28,28.15,30.63,4.69,27.65,1017.58,2030.04,2591.80,2845.09,2999.29,349.58,344.88,34.36,0000 0000 0000 0000 000000
2015-05-15 07:16:56,0.17,1.94,0.00,25.31,28.17,30.65,4.72,27.77,1017.58,2030.02,2590.22,2843.80,2998.01,349.54,344.79,34.38,0000 0000 0000 0000 000000
2015-05-15 07:21:57,0.09,1.94,0.00,25.35,28.18,30.67,4.67,27.60,1017.58,2030.01,2589.05,2842.95,2997.07,349.70,344.94,34.41,0000 0000 0000 0000 000000
2015-05-15 07:26:59,0.11,1.94,0.00,25.39,28.20,30.69,4.74,27.65,1017.59,2030.01,2588.23,2842.13,2996.45,350.42,345.57,34.44,0000 0000 0000 0000 000000
2015-05-15 07:31:59,0.04,1.94,0.00,25.43,28.22,30.71,4.72,27.66,1017.59,2030.00,2587.72,2841.87,2995.98,349.91,345.13,34.47,0000 0000 0000 0000 000000
2015-05-15 07:37:01,0.08,1.95,0.00,25.47,28.23,30.72,4.69,27.75,1017.59,2030.00,2587.02,2841.08,2995.37,350.05,345.02,34.50,0000 0000 0000 0000 000000
2015-05-15 07:42:02,0.04,1.95,0.00,25.50,28.25,30.74,4.83,27.71,1017.59,2030.00,2586.51,2840.97,2995.01,350.80,345.68,34.53,0000 0000 0000 0000 000000
2015-05-15 07:47:04,0.08,1.95,0.00,25.52,28.27,30.76,4.75,27.73,1017.59,2029.98,2586.00,2840.29,2994.46,349.98,344.99,34.56,0000 0000 0000 0000 000000
2015-05-15 07:52:05,0.02,1.95,0.00,25.55,28.30,30.80,4.73,27.74,1017.59,2029.99,2585.70,2840.01,2994.01,349.83,344.97,34.59,0000 0000 0000 0000 000000
2015-05-15 07:57:06,0.02,1.95,0.00,25.59,28.32,30.81,4.75,27.65,1017.59,2029.97,2585.04,2839.95,2993.91,349.43,344.45,34.62,0000 0000 0000 0000 000000
2015-05-15 08:02:07,0.08,1.95,0.00,25.63,28.34,30.85,4.59,27.61,1017.60,2029.91,2584.76,2839.19,2993.14,349.10,343.97,34.65,0000 0000 0000 0000 000000
2015-05-15 08:07:09,-0.05,1.95,0.00,25.66,28.36,30.87,4.66,27.57,1017.60,2029.59,2584.05,2838.99,2992.99,349.98,344.94,34.68,0000 0000 0000 0000 000000
2015-05-15 08:12:10,0.03,1.95,0.00,25.69,28.38,30.90,4.73,27.66,1017.62,2029.30,2583.81,2838.64,2992.42,350.23,345.11,34.71,0000 0000 0000 0000 000000
2015-05-15 08:17:11,0.02,1.95,0.00,25.71,28.41,30.91,4.72,27.67,1017.61,2029.06,2583.06,2838.03,2992.00,349.85,344.73,34.74,0000 0000 0000 0000 000000
2015-05-15 08:22:12,0.02,1.95,0.00,25.73,28.43,30.94,4.61,27.66,1017.64,2029.02,2582.86,2837.93,2991.70,349.44,344.37,34.77,0000 0000 0000 0000 000000
2015-05-15 08:27:13,0.08,1.96,0.00,25.75,28.46,30.97,4.71,27.58,1017.66,2029.00,2582.08,2837.26,2991.06,350.32,345.03,34.79,0000 0000 0000 0000 000000
2015-05-15 08:32:14,0.01,1.96,0.00,25.77,28.48,31.01,4.75,27.56,1017.75,2029.00,2581.88,2837.00,2990.84,349.83,344.68,34.82,0000 0000 0000 0000 000000
2015-05-15 08:37:16,0.07,1.96,0.00,25.79,28.50,31.03,4.75,27.77,1017.72,2028.99,2581.09,2836.70,2990.21,349.93,344.62,34.85,0000 0000 0000 0000 000000
2015-05-15 08:42:17,0.04,1.96,0.00,25.80,28.52,31.05,4.82,27.74,1017.69,2028.97,2580.89,2836.05,2989.96,350.41,345.19,34.88,0000 0000 0000 0000 000000
2015-05-15 08:47:19,0.06,1.96,0.00,25.82,28.55,31.08,4.70,27.66,1017.78,2028.96,2580.09,2835.96,2989.28,349.75,344.56,34.91,0000 0000 0000 0000 000000
2015-05-15 08:52:20,0.04,1.96,0.00,25.84,28.57,31.10,4.71,27.63,1017.78,2028.92,2579.99,2835.28,2989.00,349.78,344.68,34.94,0000 0000 0000 0000 000000
2015-05-15 08:57:21,-0.00,1.96,0.00,25.86,28.60,31.13,4.77,27.57,1017.93,2028.69,2579.45,2835.01,2988.70,350.07,344.78,34.97,0000 0000 0000 0000 000000
2015-05-15 09:02:22,0.03,0.20,0.00,25.88,28.62,31.15,4.17,23.48,1018.05,2029.87,3402.59,3266.57,3538.08,312.70,307.77,0.00,0000 0000 0000 0000 000000
2015-05-15 09:07:24,0.03,0.00,0.00,25.89,28.65,31.16,4.67,26.18,1018.07,2030.00,3491.81,3314.00,3598.14,349.74,344.46,0.03,0000 0000 0000 0000 000000
2015-05-15 09:12:25,0.03,0.00,0.00,25.91,28.67,31.20,4.79,26.24,1018.08,2030.00,3490.83,3313.48,3597.18,350.17,344.89,0.06,0000 0000 0000 0000 000000
2015-05-15 09:17:26,0.04,0.00,0.00,25.92,28.70,31.23,4.74,26.17,1018.08,2030.00,3489.97,3312.98,3596.34,349.94,344.62,0.09,0000 0000 0000 0000 000000
2015-05-15 09:22:28,0.05,0.00,0.00,25.94,28.72,31.24,4.63,26.21,1018.08,2029.98,3489.09,3312.30,3595.49,349.50,344.30,0.12,0000 0000 0000 0000 000000
2015-05-15 09:27:29,0.04,0.00,0.00,25.95,28.74,31.27,4.82,26.07,1018.08,2029.97,3488.78,3312.01,3595.01,350.49,344.94,0.15,0000 0000 0000 0000 000000
2015-05-15 09:32:30,0.04,0.00,0.00,25.97,28.76,31.28,4.79,26.21,1018.08,2029.95,3488.04,3311.95,3594.37,349.81,344.69,0.18,0000 0000 0000 0000 000000
2015-05-15 09:37:31,0.01,0.00,0.00,25.97,28.79,31.31,4.71,26.13,1018.08,2029.64,3487.28,3311.21,3593.71,350.19,344.91,0.21,0000 0000 0000 0000 000000
2015-05-15 09:42:32,-0.03,0.00,0.00,26.00,28.81,31.34,4.77,26.11,1018.08,2029.14,3486.78,3310.90,3592.99,350.18,344.91,0.24,0000 0000 0000 0000 000000
2015-05-15 09:47:33,0.09,0.01,0.00,26.00,28.83,31.36,4.77,26.22,1018.08,2029.05,3485.68,3310.05,3592.15,350.33,344.99,0.26,0000 0000 0000 0000 000000
2015-05-15 09:52:35,0.19,0.01,0.00,26.02,28.85,31.37,4.75,26.16,1018.08,2029.00,3483.30,3308.58,3590.46,350.15,344.79,0.29,0000 0000 0000 0000 000000
2015-05-15 09:57:36,0.18,0.02,0.00,26.03,28.87,31.40,4.71,26.10,1018.08,2029.00,3480.79,3306.85,3588.53,350.52,345.10,0.32,0000 0000 0000 0000 000000
2015-05-15 10:02:37,0.10,0.02,0.00,26.05,28.90,31.41,4.65,26.14,1018.08,2028.99,3479.04,3305.72,3587.14,349.49,344.13,0.35,0000 0000 0000 0000 000000
2015-05-15 10:07:39,0.04,0.02,0.00,26.05,28.92,31.41,4.73,26.27,1018.08,2028.95,3478.08,3305.02,3586.13,350.02,344.68,0.38,0000 0000 0000 0000 000000
2015-05-15 10:12:40,0.04,0.02,0.00,26.07,28.95,31.43,4.75,26.31,1018.08,2028.79,3477.25,3304.53,3585.70,350.28,344.88,0.41,0000 0000 0000 0000 000000
2015-05-15 10:17:41,0.01,0.02,0.00,26.08,28.97,31.44,4.72,26.20,1018.08,2028.55,3476.37,3303.96,3584.92,349.60,344.22,0.44,0000 0000 0000 0000 000000
2015-05-15 10:22:42,0.01,0.02,0.00,26.10,29.00,31.46,4.65,26.21,1018.08,2028.20,3475.38,3303.13,3584.07,349.82,344.43,0.47,0000 0000 0000 0000 000000
2015-05-15 10:27:43,0.10,0.03,0.00,26.10,29.02,31.48,4.68,26.25,1018.08,2028.03,3473.86,3302.23,3583.00,349.59,344.14,0.50,0000 0000 0000 0000 000000
2015-05-15 10:32:45,0.26,0.03,0.00,26.10,29.04,31.50,4.69,26.28,1018.08,2028.00,3470.59,3300.10,3580.93,349.47,344.01,0.53,0000 0000 0000 0000 000000
2015-05-15 10:37:46,0.26,0.04,0.00,26.11,29.06,31.51,4.75,26.35,1018.08,2028.00,3466.93,3297.66,3578.23,350.32,344.86,0.56,0000 0000 0000 0000 000000
2015-05-15 10:42:48,0.25,0.05,0.00,26.11,29.09,31.54,4.72,26.38,1018.08,2028.00,3463.23,3295.22,3575.56,350.44,344.94,0.59,0000 0000 0000 0000 000000
2015-05-15 10:47:49,0.19,0.05,0.00,26.11,29.11,31.57,4.70,26.34,1018.08,2027.99,3460.27,3293.28,3573.52,349.75,344.43,0.62,0000 0000 0000 0000 000000
2015-05-15 10:52:50,0.17,0.06,0.00,26.12,29.12,31.59,4.73,26.36,1018.08,2027.99,3457.85,3291.71,3571.85,350.40,344.90,0.65,0000 0000 0000 0000 000000
2015-05-15 10:57:52,0.14,0.06,0.00,26.12,29.15,31.62,4.76,26.43,1018.09,2027.97,3455.74,3290.31,3570.35,350.16,344.72,0.67,0000 0000 0000 0000 000000
2015-05-15 11:02:53,0.12,0.07,0.00,26.12,29.17,31.64,4.72,26.42,1018.10,2027.94,3453.85,3289.04,3568.93,349.62,344.21,0.70,0000 0000 0000 0000 000000
2015-05-15 11:07:55,0.08,0.07,0.00,26.15,29.18,31.66,4.71,26.37,1018.09,2027.86,3452.36,3288.02,3567.79,349.80,344.41,0.73,0000 0000 0000 0000 000000
2015-05-15 11:12:56,0.05,0.07,0.00,26.15,29.20,31.69,4.71,26.27,1018.11,2027.64,3451.08,3287.13,3566.85,350.29,344.96,0.76,0000 0000 0000 0000 000000
2015-05-15 11:17:57,0.05,0.07,0.00,26.15,29.22,31.70,4.71,26.26,1018.12,2027.30,3449.91,3286.41,3565.93,349.76,344.32,0.79,0000 0000 0000 0000 000000
2015-05-15 11:22:58,0.08,0.08,0.00,26.15,29.22,31.72,4.71,26.33,1018.11,2027.15,3448.54,3285.52,3564.94,349.65,344.20,0.82,0000 0000 0000 0000 000000
2015-05-15 11:27:59,0.09,0.08,0.00,26.15,29.25,31.74,4.69,26.31,1018.12,2027.10,3447.05,3284.54,3563.86,349.87,344.31,0.85,0000 0000 0000 0000 000000
2015-05-15 11:33:01,0.11,0.08,0.00,26.15,29.25,31.76,4.68,26.36,1018.11,2027.01,3445.43,3283.49,3562.64,350.09,344.49,0.88,0000 0000 0000 0000 000000
2015-05-15 11:38:02,0.09,0.08,0.00,26.13,29.26,31.77,4.76,26.34,1018.11,2027.01,3444.02,3282.59,3561.63,350.20,344.66,0.91,0000 0000 0000 0000 000000
2015-05-15 11:43:03,0.07,0.09,0.00,26.12,29.27,31.81,4.75,26.36,1018.10,2027.00,3442.75,3281.79,3560.73,349.89,344.54,0.94,0000 0000 0000 0000 000000
2015-05-15 11:48:04,0.16,0.09,0.00,26.10,29.27,31.84,4.74,26.32,1018.11,2027.00,3440.77,3280.47,3559.12,349.44,344.07,0.97,0000 0000 0000 0000 000000
2015-05-15 11:53:05,0.11,0.10,0.00,26.07,29.27,31.86,4.71,26.33,1018.09,2027.00,3438.94,3279.36,3557.81,349.89,344.46,1.00,0000 0000 0000 0000 000000
2015-05-15 11:58:07,0.12,0.10,0.00,26.03,29.28,31.86,4.69,26.35,1018.09,2027.00,3437.15,3278.22,3556.57,350.01,344.67,1.03,0000 0000 0000 0000 000000
2015-05-15 12:03:07,0.10,0.10,0.00,25.98,29.28,31.85,4.78,26.35,1018.09,2027.00,3435.56,3277.17,3555.58,350.55,345.27,1.06,0000 0000 0000 0000 000000
2015-05-15 12:08:09,0.08,0.10,0.00,25.93,29.28,31.84,4.81,26.34,1018.08,2027.00,3434.28,3276.50,3554.87,350.30,344.84,1.08,0000 0000 0000 0000 000000
2015-05-15 12:13:10,0.05,0.11,0.00,25.88,29.28,31.85,4.69,26.32,1018.10,2027.00,3432.96,3275.97,3554.08,350.27,345.25,1.11,0000 0000 0000 0000 000000
2015-05-15 12:18:11,0.09,0.11,0.00,25.84,29.27,31.87,4.78,26.32,1018.10,2027.00,3431.79,3275.25,3553.40,349.87,344.76,1.14,0000 0000 0000 0000 000000
2015-05-15 12:23:12,0.10,0.11,0.00,25.80,29.27,31.86,4.73,26.30,1018.09,2026.99,3430.40,3274.35,3552.28,350.16,345.09,1.17,0000 0000 0000 0000 000000
2015-05-15 12:28:14,0.11,0.12,0.00,25.76,29.27,31.87,4.76,26.43,1018.10,2026.99,3428.76,3273.32,3551.08,350.12,345.03,1.20,0000 0000 0000 0000 000000
2015-05-15 12:33:15,0.11,0.12,0.00,25.74,29.25,31.86,4.81,26.36,1018.10,2026.99,3427.08,3272.41,3550.05,350.37,345.38,1.23,0000 0000 0000 0000 000000
2015-05-15 12:38:16,0.08,0.12,0.00,25.71,29.25,31.86,4.68,26.37,1018.09,2026.99,3425.54,3271.75,3549.31,349.68,344.80,1.26,0000 0000 0000 0000 000000
2015-05-15 12:43:17,0.05,0.12,0.00,25.69,29.24,31.85,4.68,26.32,1018.08,2026.99,3424.59,3271.04,3548.92,349.88,344.96,1.29,0000 0000 0000 0000 000000
2015-05-15 12:48:19,0.04,0.13,0.00,25.66,29.22,31.84,4.80,26.38,1018.08,2026.99,3423.73,3270.97,3548.15,350.17,345.39,1.32,0000 0000 0000 0000 000000
2015-05-15 12:53:20,0.05,0.13,0.00,25.62,29.22,31.83,4.73,26.37,1018.08,2027.00,3422.90,3270.36,3547.98,350.15,345.21,1.35,0000 0000 0000 0000 000000
2015-05-15 12:58:22,0.04,0.13,0.00,25.61,29.20,31.82,4.82,26.41,1018.08,2027.00,3422.08,3270.00,3547.43,349.76,344.92,1.38,0000 0000 0000 0000 000000